{"data":{"norad_id":57408,"intl_designator":"2023-102E","name":"STARLINK-30205","alt_names":[],"object_type":"PAYLOAD","status":"ACTIVE","operator":null,"country":"US","launch_date":"2023-07-20","launch_site_code":"AFWTR","launch_vehicle":null,"mission":null,"orbit_class":"UNKNOWN","rcs_meters":null,"size_class":null,"mass_kg":null,"dimensions":null,"purposes":["comms"],"wikipedia_slug":null,"has_3d_model":false,"image_url":null,"decayed_at":null,"tle_current":{"epoch":"2026-05-24T18:46:02.650368Z","epoch_age_seconds":104618,"freshness":"FRESH","line1":"1 57408U 23102E   26144.78197512  .00001078  00000+0  48693-4 0  9998","line2":"2 57408  43.0015 179.1620 0001454 272.2665  87.8020 15.27578393157872","mean_motion":15.27578393,"eccentricity":0.0001454,"inclination_deg":43.0015,"raan_deg":179.162,"arg_perigee_deg":272.2665,"mean_anomaly_deg":87.802,"bstar":4.8693e-5,"rev_number":15787,"period_min":94.266847881502,"perigee_km":482.05629082197,"apogee_km":484.05152513801,"semimajor_km":6861.19090798,"source":"CELESTRAK","updated_at":"2026-05-25T13:38:18.298117Z"}}}